Location: Massognes
(46.7405°N, 0.0619°E)
Time: 10:01:19
(UTC+00:00)

Daily predictions for brighter satellites

Satellite Brightness Start Highest point End
(mag) Time Altitude Azimuth Time Altitude Azimuth Time Altitude Azimuth
BREEZE M DEB (TANK) 3.1 19:59:50 10° WNW 20:02:44 64° N 20:10:48 10° E
Cosmos 2061 Rocket 4.1 20:01:31 10° S 20:07:44 89° W 20:13:57 10° N
COBE Rocket 4.2 20:03:55 10° S 20:09:04 81° WSW 20:14:08 10° NNW
COSMOS 2487 3.2 20:07:42 10° NNW 20:10:44 45° WSW 20:13:43 10° S
Cosmos 1151 Rocket 3.2 20:08:22 10° S 20:12:31 51° E 20:16:40 10° NNE
BREEZE-M DEB (TANK) 3.3 20:10:13 10° WSW 20:13:13 82° SSE 20:21:59 10° ENE
Landsat 7 3.9 20:10:24 10° SSE 20:15:08 84° WSW 20:19:53 10° NNW
USA 129 4.1 20:14:13 10° SSW 20:16:16 22° WSW 20:17:57 10° NW
Cosmos 44 3.0 20:12:46 10° NW 20:17:08 86° NE 20:21:28 10° SE
Meteor 1-5 Rocket 4.2 20:13:08 10° NNW 20:18:38 85° W 20:23:57 10° S
OBJECT-B 3.6 20:18:42 10° WSW 20:20:08 13° W 20:21:34 10° WNW
Cosmos 1315 Rocket 3.0 20:17:46 10° N 20:21:51 58° ENE 20:25:50 10° SSE
Cosmos 1814 Rocket 4.0 20:19:34 10° NNW 20:24:44 85° WSW 20:29:51 10° SSE
Cosmos 1697 Rocket 3.6 20:20:33 10° SSE 20:25:16 28° ESE 20:30:01 10° NE
Meteor 1-11 Rocket 4.3 20:20:21 10° N 20:26:08 48° ENE 20:31:52 10° SSE
Sich 1 3.7 20:21:53 10° NNW 20:26:13 58° W 20:30:28 10° S
Cosmos 2297 Rocket 2.3 20:22:41 10° NNW 20:28:22 73° ENE 20:33:58 10° SSE
BREEZE-M DEB (TANK) 1.8 20:30:25 10° WSW 20:33:43 89° NNW 20:35:52 10° ENE
IRS-1A Rocket 4.4 20:30:44 10° SSE 20:36:21 82° WSW 20:42:07 10° NNW
ARIANE 5 R/B 4.4 20:36:29 10° ESE 20:39:39 19° ENE 20:42:52 10° NNE
SPOT 1/Viking Rocket 3.6 20:36:36 10° SSE 20:41:47 86° WSW 20:47:00 10° NNW
ATLAS 2AS CENTAUR R/B 4.2 20:40:06 11° SSE 20:45:00 19° ESE 20:50:03 10° ENE
CARTOSAT-1 3.7 20:42:03 12° SSE 20:45:59 63° ENE 20:50:16 10° N
NOSS 3-4 (A) 3.5 20:43:28 10° SSW 20:48:52 48° ESE 20:54:40 10° NE
NOSS 3-4 (C) 3.5 20:43:32 10° SSW 20:48:58 47° ESE 20:54:47 10° NE
IRAS Rocket 4.4 20:48:48 10° NNE 20:54:26 80° WNW 21:00:03 10° SSW
Aureole 1 Rocket 3.3 20:53:00 17° SSE 20:54:48 27° ESE 20:57:28 10° NE
Cosmos 2219 3.2 20:53:49 10° NNW 20:59:29 77° ENE 21:03:54 17° SSE
Cosmos 2208 Rocket 4.3 20:54:10 10° NNW 20:59:37 72° WSW 21:04:26 13° S
Cosmos 921 Rocket 4.2 20:56:29 10° N 21:00:33 32° ENE 21:03:26 17° ESE
MetOp-B 4.3 20:56:18 10° S 21:01:36 77° WSW 21:06:59 10° NNW
CZ-4B R/B 3.0 20:59:48 10° N 21:02:46 34° WNW 21:05:42 10° SW
USA 267 4.4 20:56:55 10° ENE 21:02:55 40° NNE 21:08:54 10° NW
H-2A R/B 3.9 21:00:53 10° N 21:04:30 31° WNW 21:08:05 10° SW
SPOT 5 3.2 21:03:09 17° SSE 21:07:16 62° ENE 21:12:25 10° N
Cosmos 1536 2.8 21:03:51 10° N 21:07:52 79° E 21:10:43 19° SSE
Cosmos 389 Rocket 2.7 21:04:42 10° N 21:08:08 54° ENE 21:10:02 24° SE
Cosmos 2082 4.1 21:04:18 10° NNW 21:09:50 51° ENE 21:13:46 19° SE
Cosmos 2034 Rocket 4.3 21:05:04 14° SSE 21:10:08 49° E 21:16:12 10° NNE
Cosmos 1184 Rocket 3.1 21:09:25 26° SSE 21:10:37 40° E 21:13:30 10° NNE
NOSS 3-2 (C) 4.4 21:03:47 10° NW 21:11:16 62° WSW 21:18:24 16° SSE
Helios 1A Rocket 2.8 21:08:57 19° SSE 21:11:45 81° ENE 21:15:47 10° NNW
Cosmos 1328 Rocket 4.2 21:09:44 10° SSW 21:13:57 55° WNW 21:18:13 10° N
Cosmos 968 Rocket 4.0 21:11:20 10° SW 21:16:26 61° WNW 21:21:32 10° NNE
Okean 1 4.1 21:14:48 23° SE 21:16:33 34° E 21:20:12 10° NNE
Cosmos 405 3.6 21:13:23 10° NNW 21:16:43 51° W 21:19:10 16° S
Cosmos 1515 3.6 21:13:27 13° S 21:16:45 89° ESE 21:20:33 10° N
ERS-1 Rocket 3.1 21:13:54 20° SSE 21:17:23 66° ENE 21:22:24 10° N
ATLAS 3B R/B 4.2 21:14:36 10° NNW 21:20:57 32° NNE 21:27:33 10° E
Cosmos 1743 2.7 21:19:32 10° N 21:23:20 80° W 21:25:37 23° S
ISS -2.1 21:21:05 10° WNW 21:24:12 34° N 21:27:19 10° ENE
Cosmos 2263 Rocket 3.2 21:20:28 10° NNW 21:25:38 36° NE 21:29:18 17° ESE
BREEZE-M (TANK) 4.3 21:22:19 10° W 21:26:34 82° NNW 21:45:00 10° ENE
Cosmos 2344 3.5 21:20:57 10° SSW 21:28:20 60° ESE 21:35:47 10° NE
Cosmos 1933 Rocket 3.6 21:26:56 10° NNW 21:31:25 79° W 21:34:14 22° S
SL-4 R/B 2.1 21:27:03 10° WNW 21:31:36 89° NNE 21:34:00 25° ESE
Ariane Rocket 4.4 21:27:44 10° SSW 21:32:16 33° W 21:36:50 10° NNW
Terra 1.8 21:29:55 25° SSE 21:32:41 71° ENE 21:37:27 10° N
Resurs 01 Rocket 3.8 21:29:51 10° SW 21:33:13 21° W 21:36:37 10° NW
Cosmos 2227 Rocket 2.7 21:29:07 10° NW 21:34:38 53° WSW 21:38:31 19° S
SPOT 3 Rocket 4.2 21:30:26 14° S 21:34:44 49° W 21:39:44 10° NNW
CENTAUR R/B 4.4 21:27:38 10° NW 21:35:00 35° WSW 21:42:39 11° S
Cosmos 1975 4.0 21:32:13 10° N 21:35:51 30° ENE 21:37:13 24° ESE
Cosmos 1340 3.1 21:38:01 15° SSW 21:40:57 60° WNW 21:44:41 10° N
Meteor 2-21 4.4 21:38:51 10° N 21:44:58 82° E 21:48:44 25° SSE
Cosmos 2369 3.6 21:40:08 13° SSW 21:45:12 69° ESE 21:50:51 10° NNE
Cosmos 1980 Rocket 2.2 21:43:23 17° S 21:47:40 63° ESE 21:53:16 10° NNE
CZ-2C R/B 3.9 21:48:06 10° NNE 21:52:52 78° WNW 21:56:25 18° SSW
Cosmos 2322 Rocket 4.0 21:53:11 14° E 21:53:23 14° E 21:56:08 10° ENE
Cosmos 1354 Rocket 4.0 21:51:12 22° S 21:54:36 70° ESE 21:59:54 10° NNE
Meteor 2-21 Rocket 4.4 21:50:36 10° N 21:56:42 76° E 22:00:00 29° SSE
SJ 16-02 1.4 21:56:08 35° S 21:57:43 59° ESE 22:02:02 10° NNE
Cosmos 2228 Rocket 3.1 21:55:45 32° S 21:57:50 74° E 22:02:25 10° NNE
Meteor 1-18 Rocket 4.3 21:56:11 28° SSE 21:59:11 62° E 22:04:46 10° NNE
Cosmos 1777 Rocket 4.2 22:01:35 33° SSE 22:03:38 53° ESE 22:08:44 10° NNE
USA 81 4.2 22:03:54 33° SSE 22:06:03 58° E 22:11:14 10° NNE
Spot 2 Rocket 4.5 22:03:06 19° SSW 22:06:17 39° W 22:11:02 10° NNW
SAR-Lupe-4 3.4 22:02:50 10° NNE 22:06:27 72° ESE 22:07:07 54° SSE
Cosmos 1697 Rocket 3.5 22:03:27 10° SW 22:08:57 51° WNW 22:14:30 10° NNE
USA 215 3.3 22:03:09 10° ENE 22:09:36 56° SE 22:16:01 10° SW
Cosmos 2297 Rocket 4.2 22:07:58 10° WNW 22:11:46 19° W 22:15:34 10° SW
Cosmos 1092 Rocket 3.9 22:05:59 10° N 22:12:13 87° W 22:15:26 31° S
EXPRESS MD2 3.7 22:08:15 10° WNW 22:12:19 36° SW 22:12:19 36° SW
Meteor 2-16 Rocket 4.4 22:06:23 10° N 22:12:35 85° E 22:15:38 32° SSE
Cosmos 773 Rocket 4.0 22:09:36 10° NNW 22:14:52 79° WSW 22:16:57 37° S
Timation 2 Rocket 4.2 22:08:38 10° NNW 22:15:07 70° WSW 22:18:32 31° S
ARIANE 5 R/B 3.1 22:13:52 31° SSW 22:15:43 53° W 22:20:09 10° NNW
Meteor 1-4 Rocket 4.2 22:13:27 10° NNE 22:16:09 21° ENE 22:16:23 21° ENE
CSL-04 DEB 4.4 22:13:49 10° N 22:17:45 75° WNW 22:19:15 37° SSW
Cosmos 1634 Rocket 3.9 22:14:36 30° S 22:17:50 76° E 22:24:04 10° NNE
Cosmos 1869 Rocket 4.2 22:16:04 10° NNW 22:20:25 51° W 22:22:12 31° SSW
SL-16 R/B 2.8 22:27:38 34° SE 22:28:38 37° ESE 22:33:47 10° NE
Iridium 4 Rocket 4.5 22:25:59 10° NNE 22:29:44 26° E 22:30:35 25° E
Cosmos 1733 4.1 22:29:35 10° N 22:33:06 35° ENE 22:33:22 34° E
ATLAS CENTAUR R/B 4.3 22:30:29 10° NNW 22:33:40 17° NNE 22:36:49 10° ENE
Cosmos 44 Rocket 3.5 22:29:23 10° NNW 22:34:04 62° NE 22:35:37 39° ESE
ATLAS 2AS CENTAUR R/B 2.9 22:27:21 11° SSW 22:34:58 79° SE 22:42:33 10° NE
Cosmos 1378 3.6 22:34:17 43° SW 22:35:06 55° WNW 22:38:43 10° N
Cosmos 1346 Rocket 2.7 22:35:44 64° S 22:36:18 83° E 22:40:21 10° NNE
RESURS DK-1 2.2 22:36:47 54° SSW 22:37:41 88° ESE 22:41:49 10° NNE
Cosmos 1538 Rocket 4.0 22:33:20 10° NNW 22:38:37 72° ENE 22:40:18 43° SE
Cosmos 921 Rocket 4.5 22:34:50 10° NW 22:38:45 29° W 22:40:13 24° SW
ADEOS Rocket 4.1 22:40:52 20° ESE 22:43:36 30° ENE 22:48:36 10° N
Cosmos 2026 Rocket 4.3 22:38:10 10° NNW 22:44:11 59° W 22:47:06 31° SSW
USA 267 3.4 22:40:37 20° ESE 22:45:24 74° NNE 22:51:57 10° NW
Cosmos 2278 3.8 22:42:30 24° SW 22:45:58 77° WNW 22:51:41 10° NNE
Cosmos 1707 Rocket 3.8 22:46:00 41° SW 22:47:22 63° W 22:51:48 10° N
Cosmos 482 Debris 4.4 22:49:46 10° WNW 22:53:19 81° SSW 22:54:21 54° SE
Okean 1-7 3.9 22:54:08 35° E 22:54:21 36° E 22:58:22 10° NNE
SL-24 R/B - RUBIN 2 3.5 22:49:57 10° NW 22:54:22 82° NE 22:55:13 58° SE
Cosmos 1703 Rocket 4.3 23:00:20 38° E 23:00:35 39° E 23:04:44 10° NNE
Cosmos 2360 Rocket 3.1 23:00:22 30° ESE 23:00:52 31° ESE 23:05:45 10° NE
ISS -3.3 22:57:59 10° WNW 23:00:55 60° NNW 23:00:55 60° NNW
Cosmos 158 Rocket 4.3 22:58:02 10° NNW 23:02:59 52° WSW 23:04:12 42° SSW
Meteor 2-15 Rocket 4.5 23:05:19 36° SSW 23:07:53 74° W 23:14:00 10° N
Cosmos 2242 Rocket 4.4 23:09:15 37° ESE 23:09:35 37° E 23:13:48 10° NNE
Cosmos 2263 Rocket 2.9 23:04:24 10° NW 23:09:36 40° WSW 23:10:59 34° SW
Cosmos 1441 Rocket 3.1 23:09:48 78° WNW 23:09:48 78° WNW 23:13:31 10° N
SL-4 R/B 3.9 23:07:17 10° W 23:09:26 19° WSW 23:09:26 19° WSW
Terra 4.1 23:08:48 11° WSW 23:10:56 15° W 23:13:37 10° NW
Spot 4 3.8 23:11:37 57° S 23:12:34 78° WSW 23:17:24 10° NNW
ATLAS 3B R/B 2.9 23:05:14 10° NW 23:12:38 87° NE 23:16:23 34° SE
Cosmos 1937 Rocket 4.5 23:13:32 30° ESE 23:13:53 31° E 23:18:28 10° NE
NOSS 2-1 (E) 4.0 23:15:19 36° NE 23:15:19 36° NE 23:17:23 10° NE
Cosmos 1066 Rocket 4.2 23:12:30 45° S 23:14:24 90° W 23:20:10 10° N
Cosmos 1782 Rocket 4.2 23:10:55 10° N 23:15:03 41° ENE 23:15:37 39° E
ALOS 2 2.5 23:15:18 63° SE 23:15:52 73° ENE 23:20:15 10° N
Iridium 51 4.2 23:16:57 66° NNW 23:16:57 66° NNW 23:20:03 10° N
Cosmos 2266 Rocket 3.9 23:12:12 10° N 23:18:32 81° E 23:20:37 45° SSE
Cosmos 1733 Rocket 4.1 23:15:58 10° NNW 23:20:02 35° W 23:20:49 32° WSW
Cosmos 1680 Rocket 3.9 23:15:31 10° NNW 23:20:46 57° ENE 23:22:24 40° ESE
Cosmos 1908 Rocket 3.3 23:22:25 10° N 23:26:47 82° W 23:27:06 75° SSW
Okean 3 3.6 23:26:58 58° E 23:27:00 59° E 23:31:10 10° NNE
Cosmos 2279 Rocket 4.5 23:24:20 30° SW 23:27:15 53° WNW 23:33:20 10° N
Cosmos 2333 Rocket 3.3 23:26:56 28° ESE 23:27:26 29° ESE 23:32:13 10° NE
Cosmos 1805 3.8 23:26:59 10° NNW 23:30:41 48° W 23:30:41 48° W
Cosmos 1980 Rocket 4.1 23:27:27 10° WSW 23:32:06 26° NW 23:36:51 10° N
ERS-2 2.2 23:29:26 10° NNE 23:32:44 72° NNE 23:32:44 72° NNE
MINOTAUR IV R/B 4.4 23:33:53 75° S 23:34:14 84° ESE 23:38:45 10° NNE
Cosmos 1898 Rocket 3.5 23:35:22 55° SSE 23:36:16 65° ESE 23:41:34 10° NNE
Meteor 2-10 4.1 23:30:58 10° NNW 23:36:17 68° W 23:37:21 53° SSW
Cosmos 2322 Rocket 2.1 23:34:57 49° SSW 23:36:33 88° ESE 23:42:13 10° NNE
SJ 16-02 3.8 23:33:45 10° W 23:36:41 17° NW 23:39:38 10° NNW
H-2A R/B 3.6 23:33:35 10° N 23:37:38 62° WNW 23:38:02 58° WSW
Cosmos 1766 3.2 23:34:33 10° NNW 23:38:21 76° WNW 23:38:21 76° WNW
Cosmos 990 Rocket 3.9 23:37:51 52° SSW 23:39:09 83° WNW 23:44:27 10° NNE
Cosmos 1300 Rocket 4.3 23:35:29 10° N 23:39:35 40° ENE 23:40:11 37° E
Meteor 1-15 Rocket 4.2 23:38:58 10° NNW 23:44:36 79° W 23:46:02 52° S
Gblst 52 Del rocket 4.4 23:49:00 50° S 23:49:50 54° SE 23:55:22 10° ENE
NOSS 2-1 (C) 4.0 23:50:45 38° NW 23:50:50 38° NW 23:53:56 10° NNE
Meteor 1-4 Rocket 4.2 23:48:05 10° NW 23:50:22 23° WNW 23:50:22 23° WNW
Cosmos 1844 Rocket 2.6 23:46:04 10° NNW 23:51:41 83° WSW 23:53:02 54° SSE
NOSS 2-1 (D) 4.1 23:52:23 36° NW 23:52:31 36° NW 23:55:35 10° NNE
USA 215 3.8 23:46:13 10° NE 23:52:38 59° NNW 23:59:03 10° WSW
Cosmos 1726 2.7 23:50:45 10° NNW 23:53:54 50° WNW 23:53:54 50° WNW
Cosmos 1674 4.4 23:56:22 23° E 23:56:22 23° E 23:59:09 10° NE
